Location: Lake Mineral Wells State Park
(32.8157°N, 98.0290°W)
Time: 23:43:38
(UTC-06:00)

Envisat - Pass Details

Date: 30 October 2019
Orbit: 764 x 766 km, 98.1° (Epoch: 14 November)

Event Time Altitude Azimuth Distance (km) Brightness Sun altitude
Rises 19:35:05 0° 164° (SSE) 3,216 6.2 -11.5°
Reaches altitude 10° 19:37:22 10° 163° (SSE) 2,293 5.4 -12.0°
Maximum altitude 19:42:25 80° 76° (ENE) 779 2.9 -13.0°
Drops below altitude 10° 19:47:30 10° 350° (N) 2,305 5.5 -14.1°
Sets 19:49:49 0° 350° (N) 3,235 6.3 -14.6°
